Theta_e
307 308 308 307 307 305 304 305 306 305 305 305 306 307 307 308 309 309 311 313 315 318 319 321 322 322 323 323 322 321 321 321 322 322 323 323 323 322 322 322 323 323 323 323 323 323 322 323 323 322 322 322 321 321 321 321 321 320 319 320 320 320
306 307 305 304 305 303 303 304 303 304 304 304 304 305 305 305 306 307 308 309 312 315 317 319 321 321 322 322 321 321 321 321 321 322 321 322 322 322 323 322 322 322 322 322 322 322 322 322 322 322 322 321 321 320 320 320 320 320 319 319 320 320
304 304 304 304 304 303 302 303 304 304 303 303 303 304 304 304 305 306 307 308 309 310 313 316 318 319 321 321 321 321 322 322 320 322 322 321 322 322 322 322 322 322 322 322 321 322 321 321 321 321 321 321 320 320 320 319 319 319 319 319 319 319
304 304 305 304 302 303 302 304 304 303 304 304 303 303 304 304 305 305 306 307 309 310 312 314 316 318 320 320 321 321 321 322 322 321 320 320 322 321 322 322 322 322 322 322 322 321 321 321 321 321 320 320 319 319 320 319 318 318 318 318 317 317
305 303 303 304 304 304 303 303 304 304 304 304 303 303 303 303 304 305 306 307 308 310 311 314 315 317 317 319 320 320 320 320 319 319 319 320 320 320 321 321 321 321 321 321 321 321 321 321 321 321 320 320 319 318 318 319 318 317 317 317 316 317
303 301 301 304 304 304 304 303 303 303 304 304 302 302 303 302 303 303 304 306 307 309 310 311 312 313 313 315 317 317 317 318 317 318 318 319 318 319 319 319 320 320 320 320 320 320 320 319 319 319 318 320 318 318 318 317 317 318 317 317 316 315
302 302 302 303 304 304 303 303 303 303 303 302 302 303 302 302 301 301 302 302 304 306 307 308 309 309 310 312 313 313 313 312 315 316 317 317 317 318 317 317 317 318 318 320 319 319 317 318 318 319 319 319 319 319 319 318 318 317 317 317 316 310
302 301 300 302 304 304 302 302 304 303 302 303 301 301 300 299 298 299 299 299 301 303 304 305 306 308 309 310 311 312 311 313 312 315 315 316 318 316 316 316 315 317 316 315 316 316 316 316 316 316 318 318 318 318 318 318 317 317 317 316 316 315
302 302 302 303 303 301 301 302 304 303 301 302 300 299 299 299 298 297 297 297 298 301 302 303 305 307 308 309 310 310 311 312 310 311 313 310 312 313 313 311 312 310 312 314 314 315 316 317 316 318 318 318 318 318 318 317 317 317 317 316 316 316
301 300 302 303 304 302 302 303 304 302 301 302 300 299 298 301 298 296 296 296 297 298 300 301 303 304 307 308 308 309 309 309 309 310 310 308 311 312 312 312 313 310 310 314 315 316 315 317 318 318 318 319 319 318 317 317 316 316 316 316 316 316
301 301 300 301 300 300 301 302 302 301 300 300 299 298 298 297 297 296 295 295 297 298 299 299 301 303 305 305 306 307 308 308 308 307 308 309 310 311 311 313 314 312 313 314 315 316 316 317 318 318 318 318 318 319 318 318 317 316 315 315 315 315
300 300 300 300 301 301 300 301 302 302 302 302 299 298 299 298 297 296 295 296 297 298 298 298 299 301 302 303 305 305 304 303 303 304 304 307 308 308 308 309 311 313 316 316 316 316 317 318 319 309 306 307 316 318 318 318 316 316 315 314 314 314
299 299 300 301 301 301 304 304 304 303 301 299 299 299 300 297 298 295 295 297 297 297 297 298 298 299 299 301 302 302 301 303 301 302 303 303 303 304 301 303 309 312 315 316 316 316 316 317 317 307 306 305 305 313 317 316 316 315 315 314 314 313
299 299 299 300 301 301 302 303 301 298 300 300 300 300 298 297 297 297 297 296 296 297 297 297 297 297 298 298 299 299 298 296 297 299 301 301 300 300 296 301 306 309 311 313 314 314 315 315 305 305 305 304 304 304 313 317 316 315 315 314 313 313
301 301 301 299 301 301 301 300 299 299 299 299 299 298 297 297 297 296 296 297 296 296 296 296 296 297 297 297 296 295 294 294 295 296 297 298 299 295 300 304 305 305 306 308 310 311 312 312 305 304 303 303 303 303 305 315 316 315 314 314 313 313
300 301 300 300 299 298 297 297 297 298 297 298 297 296 296 296 296 296 296 296 296 296 296 296 295 295 296 295 294 291 291 292 294 293 292 292 292 296 298 298 299 301 303 305 306 307 309 309 304 303 302 301 301 302 303 311 313 314 314 313 312 312
299 298 298 299 298 297 297 297 296 297 296 296 296 296 295 295 294 295 295 295 296 295 295 295 295 295 295 294 292 291 291 291 291 290 289 289 291 293 295 295 295 298 298 300 301 303 304 307 302 302 301 301 300 301 301 308 311 312 313 313 310 308
296 296 296 297 297 297 296 295 295 295 294 294 294 294 294 294 294 293 293 294 294 295 295 295 295 294 293 293 292 291 291 290 290 290 288 288 290 291 292 293 294 295 295 296 297 298 300 301 300 300 299 299 300 300 302 306 308 309 309 309 305 302
294 294 294 294 294 295 295 294 294 294 293 292 293 293 293 293 293 294 294 294 294 294 294 295 295 294 293 292 292 291 291 290 290 289 288 289 289 289 290 291 292 293 294 294 294 296 297 298 297 297 298 298 299 299 302 303 303 304 304 304 302 301
293 294 293 293 293 292 291 289 292 292 291 292 292 292 292 293 293 294 293 294 294 294 294 294 293 293 292 292 292 292 291 291 289 289 288 289 289 288 289 289 290 291 292 293 294 295 295 296 295 296 296 297 297 298 301 301 300 300 300 300 299 298
292 290 289 289 291 292 290 288 289 290 289 289 290 290 291 291 292 292 292 292 293 292 292 292 292 292 291 291 292 292 291 291 290 290 289 288 288 289 288 287 289 290 291 292 292 290 293 294 293 294 295 295 296 295 299 299 299 298 298 299 299 296
290 290 290 290 290 289 289 287 288 286 287 288 287 288 289 290 291 291 291 291 291 291 291 291 290 290 290 290 290 290 290 290 289 289 289 287 287 289 288 287 290 290 291 291 291 292 292 293 294 293 294 295 295 296 296 297 297 297 297 297 297 297
289 289 289 289 289 288 287 287 287 287 287 287 287 287 288 289 289 289 289 289 289 289 289 289 288 288 288 288 289 289 289 288 289 288 287 288 287 287 288 288 289 290 290 291 291 291 291 292 292 292 293 294 295 295 295 295 295 297 297 297 295 296
287 287 287 288 289 288 287 286 286 286 286 286 287 287 288 288 288 287 287 287 286 286 287 287 287 287 287 287 287 287 288 287 287 288 287 287 287 287 288 288 288 289 290 290 291 291 291 291 290 292 291 293 294 294 294 294 295 294 295 295 295 295
288 288 288 289 289 289 288 287 286 285 285 286 286 287 287 287 287 286 286 285 285 285 285 286 286 286 287 287 287 287 287 287 287 287 286 286 287 287 288 288 288 288 289 290 291 291 291 291 290 289 290 291 292 293 294 294 294 295 294 295 295 295
288 288 288 288 288 288 288 288 288 287 286 286 287 286 286 286 286 285 285 285 285 285 285 285 286 286 286 286 286 286 286 287 287 286 286 286 287 288 288 288 288 289 289 289 290 290 291 292 291 289 289 289 291 292 293 293 293 293 293 294 295 296
288 288 288 287 287 288 288 288 287 287 287 288 288 287 287 286 286 285 285 285 285 285 286 286 286 285 285 285 285 286 286 286 286 286 286 285 287 288 288 288 288 289 289 289 289 290 290 290 291 291 289 288 289 291 292 292 292 293 293 292 292 292
287 287 287 287 287 287 287 287 287 287 287 288 288 287 286 286 285 285 285 285 285 285 285 285 286 286 285 286 285 285 285 286 286 286 286 285 286 287 288 288 288 288 288 289 289 290 290 290 290 290 290 288 288 288 289 290 290 289 290 290 292 290
286 286 286 285 286 286 287 287 287 287 287 287 287 286 286 285 285 284 284 284 285 285 285 285 285 286 286 286 286 285 285 285 285 285 286 285 285 286 287 287 288 288 288 288 289 289 289 289 289 290 290 289 289 289 288 288 288 288 288 289 290 289
285 285 285 285 286 287 286 286 286 286 286 286 286 286 285 285 285 284 284 284 284 284 285 284 285 285 285 286 286 286 286 285 285 285 286 286 286 286 286 287 287 287 288 288 288 288 289 289 289 289 289 289 289 289 289 289 289 289 289 290 290 289
284 284 284 285 286 286 286 286 286 286 286 286 286 285 284 284 284 283 283 283 284 284 284 284 284 284 284 285 286 286 285 286 286 286 286 286 286 287 287 287 287 287 287 287 288 288 288 288 288 288 289 288 289 289 289 288 289 289 289 288 289 287
282 283 284 285 285 285 285 285 286 286 285 285 284 283 283 283 283 282 282 282 283 283 284 284 284 285 285 285 285 286 286 286 287 287 287 287 286 287 288 288 288 288 288 288 289 288 289 289 289 290 290 290 290 290 290 290 290 290 289 289 290 288
282 282 282 284 284 284 284 284 285 285 285 285 284 283 282 282 282 282 282 282 282 282 283 283 283 284 285 285 286 286 286 286 288 288 288 288 287 287 287 288 288 288 288 288 289 289 290 289 289 289 290 290 289 290 290 290 290 290 290 290 288 287
283 282 282 281 283 283 284 284 284 284 284 284 283 280 279 280 280 280 280 281 281 282 282 283 283 284 284 284 285 285 285 286 286 287 288 288 288 287 287 287 287 287 288 288 288 288 289 289 289 289 289 289 289 289 289 290 290 290 290 289 289 287
282 282 282 282 282 282 282 282 283 283 283 282 278 277 277 278 279 279 279 279 279 280 281 281 282 282 283 284 284 285 285 285 285 285 285 288 288 288 288 287 287 287 287 288 287 287 287 287 288 288 288 288 288 288 289 289 290 290 290 290 287 287
280 280 280 280 280 281 281 281 281 282 281 276 275 275 274 276 277 278 278 278 278 278 279 280 281 282 283 284 284 285 285 285 286 286 286 285 286 287 287 287 287 287 287 287 287 287 287 287 287 287 287 287 287 288 289 289 289 290 291 289 287 287
278 278 279 279 279 279 279 279 280 278 274 274 273 273 274 275 275 276 277 278 278 278 278 279 280 282 283 284 284 285 285 285 286 286 285 285 285 285 285 286 287 287 287 286 287 287 287 287 287 287 287 287 287 288 289 289 288 287 287 288 288 287
276 276 277 278 278 278 278 277 277 273 272 272 272 273 274 275 275 276 276 276 277 277 277 278 279 280 282 282 283 284 284 285 285 285 285 285 285 285 285 286 287 287 287 287 286 286 286 286 286 287 287 287 287 288 288 286 286 286 286 286 287 287
Wind_Speed
3 1 0 0 1 3 5 5 4 4 4 4 5 6 6 6 5 5 6 6 6 6 9 9 10 10 10 9 9 8 9 10 9 9 10 8 8 8 7 8 8 9 10 11 11 11 12 12 12 13 13 13 12 12 12 12 12 12 11 10 11 10
2 2 3 2 2 4 5 5 5 5 4 4 5 5 5 6 6 7 7 7 7 8 7 7 7 8 9 9 8 9 10 11 10 10 9 11 9 8 9 8 9 9 10 10 11 11 11 12 12 12 13 12 12 12 11 11 12 13 12 11 11 9
4 6 7 4 2 3 4 5 5 5 4 4 4 5 5 5 7 5 7 7 7 7 8 8 6 7 7 7 9 10 11 11 11 11 11 7 9 10 9 9 10 10 10 10 11 11 11 12 12 11 11 12 12 12 12 11 12 13 12 11 12 11
4 5 8 6 4 5 5 5 5 5 4 3 4 4 5 5 6 5 6 5 7 7 8 8 7 8 7 8 9 11 11 10 10 9 7 9 10 9 10 10 10 9 10 10 10 11 11 11 12 11 11 12 12 12 10 11 13 13 13 12 13 13
3 4 6 7 6 6 6 5 5 5 3 2 4 4 6 5 6 5 5 5 6 7 8 7 7 6 7 8 8 9 9 9 8 7 8 9 9 7 9 9 8 9 9 10 10 11 11 12 11 11 11 12 12 12 12 12 12 13 13 13 14 13
2 5 6 8 8 7 6 5 5 4 2 3 4 5 6 5 4 5 5 5 6 7 7 7 7 7 7 8 8 8 8 8 8 7 8 9 7 9 8 7 8 8 9 10 10 11 11 11 11 11 10 12 12 12 13 12 12 12 13 13 13 12
4 6 6 6 7 7 6 6 6 6 5 4 5 5 5 5 4 4 5 5 6 7 7 7 7 7 8 8 8 9 8 7 9 8 8 8 8 7 7 8 7 8 8 10 10 10 10 11 11 11 11 10 10 12 12 13 13 12 13 13 13 12
6 6 6 6 7 6 5 6 8 7 5 5 5 5 5 5 4 4 5 5 5 7 7 8 7 9 9 9 8 9 8 8 7 8 7 7 9 8 8 8 7 8 9 8 8 8 10 10 10 10 11 11 10 10 12 12 12 13 13 13 13 13
7 8 6 6 7 6 6 7 9 7 6 6 6 5 5 5 4 4 4 5 5 6 7 7 8 9 9 9 9 8 7 8 7 7 8 6 7 7 8 6 7 6 7 8 7 9 9 9 9 10 10 11 11 12 12 12 12 12 13 13 14 14
6 6 6 6 7 6 7 7 8 6 6 6 6 5 4 4 4 4 5 5 5 6 8 7 7 8 8 9 8 7 7 6 6 7 7 6 8 8 8 8 8 7 6 7 8 8 7 8 9 10 11 11 12 11 12 12 13 13 12 13 13 13
7 7 6 7 6 7 7 7 6 5 6 6 6 4 5 4 4 5 5 5 6 8 7 7 6 7 7 8 7 8 7 7 6 6 6 7 8 9 8 8 8 8 8 7 7 7 7 8 10 9 10 11 12 12 13 13 13 12 12 13 12 12
7 7 6 7 7 6 6 5 6 7 7 8 5 5 6 5 5 5 5 5 7 8 7 7 6 7 7 7 9 8 7 6 6 6 6 7 7 7 7 7 8 9 11 11 10 9 9 11 11 13 17 15 12 11 11 11 12 12 12 12 12 12
6 6 7 8 6 7 7 7 7 7 6 6 6 6 7 6 6 5 5 7 7 7 7 7 7 6 8 8 8 8 7 7 6 6 7 7 6 6 5 4 7 10 10 11 12 12 12 13 13 19 18 19 20 16 13 12 12 11 12 12 13 13
6 7 7 7 7 7 6 7 6 5 6 7 7 7 6 6 6 7 8 8 7 7 8 7 7 7 8 7 8 7 6 6 6 7 7 7 7 7 5 7 8 6 6 8 8 10 12 11 13 15 17 18 19 17 14 12 12 11 12 12 13 12
9 7 6 5 5 5 6 5 6 7 6 7 7 7 6 7 7 7 8 8 8 9 8 7 7 7 8 8 7 6 6 6 7 8 8 10 8 5 8 10 9 9 7 8 10 11 11 11 13 15 17 17 18 19 17 13 13 12 12 12 12 12
4 4 4 4 4 4 5 5 5 5 5 5 6 6 7 6 7 7 8 8 8 9 9 8 7 8 8 7 7 6 6 6 8 7 6 5 4 7 8 8 10 10 10 11 11 11 11 11 14 16 16 16 17 18 17 14 14 13 12 12 12 12
5 5 6 6 6 5 6 7 6 7 8 8 9 7 7 6 6 6 7 7 8 8 8 8 8 9 9 8 7 6 6 6 7 7 5 5 7 7 9 8 9 10 10 10 10 10 12 13 15 14 15 14 15 16 15 12 12 13 13 12 11 10
5 5 5 6 7 6 5 5 6 7 7 7 7 8 7 7 6 6 5 6 7 7 7 7 8 8 8 8 8 7 7 7 7 8 6 5 6 6 7 8 8 10 9 9 9 10 13 13 15 15 15 15 14 15 12 11 12 13 12 12 9 8
5 5 4 5 5 6 5 5 6 6 6 7 7 7 7 7 7 7 6 6 6 7 8 8 9 9 9 8 8 8 8 8 8 7 5 7 7 7 8 8 8 8 8 9 9 11 13 12 12 14 16 15 15 12 10 10 10 11 12 11 9 9
5 6 6 6 6 5 5 5 6 6 6 6 6 7 8 7 7 7 8 8 8 8 8 8 8 9 9 9 9 9 9 8 7 7 5 7 7 8 8 6 8 7 7 9 10 9 11 12 10 12 14 14 15 13 11 9 9 11 10 10 9 9
6 5 5 5 6 7 6 5 6 6 6 5 6 5 6 6 7 8 10 11 10 10 8 7 7 7 8 9 9 9 10 9 8 7 5 6 6 8 5 5 7 7 7 8 9 11 12 12 10 10 12 14 14 12 10 9 8 10 11 10 11 7
8 8 8 8 7 5 6 5 5 5 6 7 5 6 7 7 7 7 8 9 10 9 10 8 9 8 7 9 10 9 9 8 8 7 7 6 5 7 6 5 7 9 9 7 8 9 10 11 10 8 12 13 14 15 11 7 9 12 11 9 9 7
5 5 6 6 6 5 5 4 5 6 6 6 6 7 7 7 7 8 8 8 9 9 10 9 7 10 9 6 8 9 8 7 8 8 7 8 7 6 7 6 7 8 10 7 7 8 9 9 10 9 12 13 14 16 15 9 11 10 8 8 7 9
5 5 5 5 6 5 5 4 4 4 5 6 8 7 6 7 8 8 8 9 9 8 8 8 8 7 8 8 8 9 9 6 6 7 7 7 7 8 9 7 7 8 10 8 8 8 9 8 12 10 11 14 14 15 17 11 10 8 6 9 9 9
5 5 5 5 5 5 5 4 5 5 5 7 8 6 6 7 8 8 9 9 9 8 8 7 8 9 7 8 8 8 10 8 7 7 5 6 7 8 10 9 8 9 10 10 8 7 8 8 8 13 11 12 14 14 15 16 13 12 10 11 12 11
4 5 3 3 4 5 5 6 7 7 8 8 6 6 6 7 8 9 10 10 10 10 9 8 8 7 7 7 8 7 8 9 7 6 5 6 6 8 9 9 7 8 10 11 11 8 7 7 7 9 13 11 13 12 13 14 15 15 11 10 10 8
9 8 6 2 3 4 4 4 5 7 9 10 8 9 9 9 9 10 10 11 11 11 11 11 9 8 7 6 6 8 8 8 6 8 5 3 5 6 9 10 7 9 10 10 11 11 8 6 6 7 8 12 12 13 13 13 14 15 15 11 8 6
7 7 10 8 3 4 3 3 4 7 9 8 8 8 8 9 10 11 11 10 10 11 11 12 12 9 7 7 6 6 6 7 7 7 7 5 6 6 7 9 8 9 9 10 11 11 10 7 6 6 5 6 8 9 11 12 13 13 13 13 10 9
8 9 8 11 7 5 4 4 3 4 5 6 7 6 6 7 8 10 10 11 12 11 10 11 10 11 10 8 7 6 6 6 6 6 7 6 6 7 7 8 9 9 9 11 11 10 10 9 7 7 6 5 5 6 6 8 8 9 10 8 6 5
8 10 11 11 10 7 6 5 5 4 4 5 5 7 7 8 7 9 10 12 11 10 10 10 12 12 11 10 9 10 9 6 6 7 7 7 7 7 8 7 8 8 8 10 10 10 10 9 7 5 6 7 5 6 6 6 6 6 6 7 6 5
9 9 9 10 9 9 8 7 6 5 7 8 8 8 9 10 9 8 9 9 9 10 9 8 9 10 10 11 10 8 7 9 9 8 9 6 7 7 8 9 9 8 7 8 9 9 11 10 8 7 6 8 8 8 7 6 7 6 6 7 7 4
6 9 9 9 7 7 8 7 7 6 5 6 5 4 6 7 8 8 8 7 8 8 9 9 9 9 9 9 10 12 12 7 11 11 9 10 7 12 13 11 11 9 7 9 9 6 10 11 9 10 11 11 12 13 14 13 12 11 8 8 14 9
6 7 7 8 6 5 6 7 8 8 7 7 7 5 5 6 8 8 8 8 8 9 10 10 9 9 8 9 9 9 11 14 9 10 14 15 14 14 14 15 17 17 14 10 12 9 13 16 17 16 16 13 12 13 13 14 14 13 11 10 9 7
6 5 5 5 6 9 10 10 9 8 9 8 6 3 3 4 6 8 8 9 9 10 10 9 9 9 9 9 8 8 10 10 13 15 8 10 11 11 13 14 15 15 14 14 14 13 11 11 14 16 15 14 13 13 14 14 14 14 13 13 14 10
6 7 8 9 10 11 10 10 9 9 9 7 3 2 3 4 5 8 8 9 10 11 11 10 9 9 8 8 9 9 8 9 10 11 16 13 9 12 13 14 13 14 14 14 14 16 16 16 16 18 17 15 15 14 14 15 15 15 14 14 12 10
10 11 11 11 11 11 11 11 10 9 7 4 4 4 4 5 6 8 7 8 10 11 10 10 10 9 9 7 8 8 8 9 8 10 11 13 15 15 10 9 11 12 13 14 15 16 16 16 17 16 17 17 16 15 16 15 13 15 17 15 12 10
12 11 11 13 12 11 10 9 8 6 4 4 5 6 6 7 8 8 10 15 13 10 11 11 9 9 9 8 8 8 8 8 8 8 10 11 12 12 13 14 10 7 9 10 9 11 13 15 15 15 16 16 16 15 15 15 11 9 8 11 11 11
12 11 11 11 11 9 7 6 5 5 5 6 6 8 9 10 9 9 9 9 10 10 9 10 11 10 9 9 8 7 7 7 8 9 10 10 10 11 12 13 9 8 9 12 11 11 12 13 15 15 16 15 16 15 14 11 11 9 9 10 10 10
Wind_Direction
12 50 270 212 251 300 297 290 277 266 261 254 251 262 261 263 264 265 265 256 251 243 238 233 231 227 226 225 226 226 229 231 231 229 231 233 225 218 215 211 207 207 208 209 212 211 214 214 212 209 211 209 214 213 216 213 213 217 220 220 221 223
342 312 312 320 296 307 300 290 287 277 259 252 259 264 268 271 267 263 267 265 261 260 256 247 236 231 227 224 219 222 226 228 227 226 226 225 219 218 216 211 208 206 206 206 209 210 211 213 214 212 213 212 215 212 214 213 211 216 219 220 221 223
338 336 340 337 295 290 287 281 272 268 262 258 257 263 270 265 261 257 258 261 262 265 263 257 250 242 232 228 221 223 225 227 225 227 227 219 220 217 214 213 213 212 209 205 206 208 209 210 212 211 211 212 215 214 215 214 214 218 221 220 225 223
332 340 344 335 329 307 301 286 278 275 268 253 256 260 265 264 270 256 259 257 257 258 259 260 253 245 239 236 234 231 232 230 228 228 227 223 227 215 217 215 216 214 213 211 210 211 213 212 213 211 210 212 213 214 212 214 214 220 222 219 225 223
319 329 330 315 298 289 282 287 276 266 270 278 262 253 269 252 260 261 257 260 260 259 259 260 258 252 248 242 241 242 240 239 235 222 221 226 228 221 218 217 215 214 214 215 215 215 217 217 216 213 213 215 214 215 216 217 216 219 220 220 221 221
318 342 323 310 305 299 290 278 277 272 312 280 263 264 270 272 260 261 264 266 266 264 266 262 257 257 254 251 248 247 244 237 233 225 225 226 223 223 224 216 216 216 215 218 219 215 216 218 219 217 214 214 214 218 221 221 221 221 222 222 221 218
314 295 287 290 291 285 285 292 295 326 312 294 281 269 263 263 259 257 265 266 271 274 269 266 263 256 251 249 250 251 248 243 237 230 228 225 227 225 222 227 222 223 219 221 220 219 217 217 216 218 218 218 215 217 221 221 221 221 221 221 220 215
288 283 277 277 278 272 278 298 316 310 297 284 263 262 277 271 254 246 263 272 274 276 271 267 266 258 251 244 245 245 246 245 240 237 237 226 231 229 225 224 223 222 226 226 223 220 220 216 212 213 216 217 217 220 221 221 219 218 218 217 216 214
290 281 276 269 266 263 282 305 302 295 290 289 286 272 254 257 245 247 254 267 267 274 272 267 260 257 257 249 241 241 241 239 237 235 236 228 228 228 229 226 227 228 224 228 224 223 221 219 213 214 214 215 217 219 221 222 222 220 219 217 215 216
283 280 274 274 267 273 292 288 279 276 284 293 297 290 273 263 251 256 254 255 265 264 267 261 259 259 257 260 255 241 237 237 237 235 235 227 229 227 225 222 220 224 216 224 222 224 219 222 220 220 221 220 221 221 224 224 223 224 223 222 221 218
284 281 277 272 274 283 286 287 291 305 310 309 300 297 287 262 236 248 251 258 259 265 263 265 263 258 259 257 263 261 250 239 237 239 235 230 231 227 224 219 216 218 221 223 225 228 219 221 225 223 223 227 229 227 229 228 227 227 229 230 229 228
276 275 281 288 286 289 293 291 296 302 306 302 299 315 300 296 264 251 261 253 255 262 265 264 263 261 259 258 251 253 256 251 247 246 248 244 240 236 227 220 217 217 223 224 225 226 228 229 229 223 220 218 220 226 230 232 231 228 230 232 234 233
271 279 287 286 287 290 296 294 296 307 306 303 306 299 291 302 290 270 257 261 259 261 264 264 262 258 258 253 255 251 246 248 247 250 254 259 264 264 264 243 227 227 224 223 224 227 228 231 230 225 220 220 218 219 224 226 229 228 229 230 230 233
266 267 269 277 287 291 292 306 318 329 317 311 314 305 307 312 297 289 282 272 271 266 263 261 264 263 261 261 258 257 253 249 243 241 243 253 261 263 283 268 250 260 255 250 245 238 237 238 239 231 230 225 224 222 227 232 233 230 230 229 229 231
278 266 260 272 301 323 327 335 337 328 324 329 318 326 329 314 301 291 285 283 283 281 278 276 275 273 274 270 268 267 264 253 253 249 240 235 232 244 250 252 258 257 254 248 245 244 242 244 237 230 231 230 227 225 224 234 234 234 234 230 229 229
307 329 350 1 346 339 327 339 329 316 326 325 325 332 319 317 309 301 294 292 287 288 292 294 290 281 276 278 277 270 261 256 253 259 268 280 265 241 242 243 245 250 247 246 248 252 251 248 245 235 235 231 229 227 223 233 236 238 238 233 228 226
18 15 9 359 343 337 346 340 342 341 342 339 329 324 321 314 304 305 302 299 294 292 293 293 291 289 288 285 279 273 260 255 264 269 265 259 251 248 248 245 242 242 245 248 248 253 253 250 248 245 242 236 231 230 226 235 236 238 239 238 234 231
25 14 349 329 341 335 342 343 346 347 324 323 319 317 319 315 315 308 305 305 304 303 300 298 295 293 292 290 285 275 267 260 253 259 253 248 250 248 254 255 246 249 245 243 243 247 253 253 247 246 244 239 235 229 229 234 237 239 241 241 234 225
6 343 336 330 324 330 346 349 343 332 323 326 320 319 318 325 327 327 328 324 321 319 316 313 307 303 300 295 291 283 275 271 269 262 245 254 252 248 244 248 250 255 256 252 243 244 253 259 246 241 244 239 234 230 236 234 237 240 241 241 234 228
354 339 347 336 335 325 341 350 339 330 328 321 318 323 324 331 330 333 334 329 329 325 322 316 310 306 302 300 295 290 284 276 271 265 237 243 259 255 250 250 256 248 246 252 255 247 258 261 250 237 241 237 233 229 238 237 237 243 239 245 236 231
338 325 334 344 343 331 341 351 344 334 324 316 317 320 323 326 330 336 334 327 324 321 319 315 313 310 308 305 299 295 292 287 278 273 250 247 250 258 261 253 260 265 253 247 251 252 252 264 262 242 242 235 233 230 239 240 241 246 242 236 243 233
342 346 352 347 332 331 335 343 349 331 316 319 322 333 331 328 327 324 320 316 316 317 317 319 319 314 314 309 305 300 289 287 292 284 276 267 252 263 259 254 257 266 265 251 249 251 243 253 258 238 239 238 235 229 230 235 237 243 245 241 242 241
322 311 314 311 316 330 326 341 349 329 323 325 334 332 322 317 322 321 316 313 312 312 312 313 314 312 311 305 300 299 298 296 288 287 283 279 276 271 272 261 261 265 271 262 251 252 247 240 252 243 229 237 233 232 228 236 235 245 249 249 243 235
309 309 314 312 320 319 321 334 348 323 332 337 334 319 314 324 320 318 317 313 307 303 303 306 308 304 303 307 311 312 307 298 285 284 284 281 281 280 278 276 272 271 271 268 253 253 255 240 232 248 233 230 232 229 226 229 239 232 246 252 250 241
317 317 308 316 322 322 317 336 343 339 338 339 319 317 326 322 322 319 315 309 307 308 307 306 308 310 313 309 309 307 307 311 310 299 291 289 290 286 286 284 283 281 281 281 270 257 253 245 239 233 237 231 232 235 236 236 239 231 226 237 246 242
294 304 314 311 315 319 320 337 343 339 342 329 317 323 322 327 327 326 322 319 317 316 316 317 313 307 302 301 303 304 301 308 308 301 300 297 293 295 292 290 287 281 280 284 283 270 256 245 236 234 231 234 230 234 235 238 237 232 229 231 242 241
315 316 316 334 313 316 319 331 340 335 337 328 334 330 333 332 331 329 325 323 322 321 321 319 316 312 305 300 301 307 308 305 307 307 300 290 285 283 286 287 290 283 285 287 284 291 288 278 265 255 234 228 231 230 232 235 238 239 235 238 244 238
312 315 316 325 334 310 308 324 345 337 320 321 324 324 330 331 330 329 326 321 320 321 319 318 318 314 309 307 300 286 279 283 294 293 295 291 277 274 275 285 289 286 287 286 287 289 292 288 280 272 259 236 232 234 236 237 239 241 239 235 241 233
322 321 321 318 323 323 314 312 297 281 291 307 310 314 317 323 324 322 324 325 322 320 320 317 319 318 318 318 312 298 287 278 273 274 276 272 275 273 272 273 280 284 282 284 287 290 291 286 281 278 278 265 258 249 240 239 248 239 236 237 236 232
321 322 321 317 317 318 315 316 309 294 302 309 318 321 324 325 329 327 322 319 316 315 319 317 315 318 316 318 320 316 313 290 270 271 265 267 259 272 277 272 272 271 277 284 286 290 290 286 284 273 266 262 254 263 253 247 235 224 222 221 215 194
318 308 309 306 309 313 317 310 304 313 327 329 331 332 330 321 320 317 309 307 309 310 313 311 313 314 312 310 311 298 286 297 300 283 278 237 234 238 257 277 268 264 266 269 279 290 290 286 284 278 250 250 237 239 252 254 251 234 220 209 180 138
296 299 300 299 300 305 306 307 309 311 312 310 305 306 306 307 309 310 308 307 306 307 310 310 308 306 304 307 308 311 306 259 251 269 273 286 251 240 243 242 262 267 275 277 267 246 271 284 289 297 284 256 245 239 239 245 247 240 230 199 175 167
292 289 292 294 305 301 300 302 307 309 312 312 307 309 304 311 310 308 308 311 308 309 307 304 303 304 302 301 304 306 306 313 299 251 260 263 267 268 264 261 262 267 263 259 281 271 256 275 287 289 285 271 250 242 241 243 248 245 233 196 169 189
307 302 300 308 311 308 307 305 306 307 306 306 302 304 304 304 306 304 305 308 305 306 302 299 297 298 299 299 300 300 306 307 309 311 281 264 277 274 267 267 267 265 262 262 262 275 281 267 270 277 276 268 255 245 243 244 242 242 229 206 187 206
324 319 316 314 311 308 306 303 303 304 300 304 319 328 312 299 298 298 299 301 301 301 300 297 295 291 288 291 296 298 298 298 304 304 311 311 278 269 274 275 264 259 262 261 262 261 265 272 274 274 274 271 262 252 248 247 243 238 227 209 211 225
320 317 315 311 308 304 303 302 302 302 310 351 3 356 324 306 298 293 292 297 299 297 294 292 292 291 288 278 277 280 284 289 288 292 296 301 312 314 290 236 238 255 262 259 257 260 264 269 271 270 268 267 262 254 251 249 249 240 228 211 223 225
311 307 305 303 302 299 295 296 302 319 7 14 1 337 320 309 301 296 289 290 293 293 293 292 287 286 283 283 281 281 283 282 285 286 288 291 295 295 295 306 300 268 243 257 265 260 261 264 270 271 269 266 261 255 251 253 253 245 241 226 230 234
304 300 298 292 289 291 298 307 326 358 0 349 337 328 315 308 301 295 290 290 288 285 284 285 287 287 286 287 280 276 273 275 278 276 276 279 276 278 287 292 284 289 295 279 268 261 267 271 272 272 270 267 261 255 246 246 241 243 238 233 232 233